[[{"header":{"parameterUnit":"m.s-1","parameterCategory":1,"la1":30.2991,"la2":30.254,"lo1":-89.0895,"lo2":-89.0444,"dy":0.0017,"dx":0.0017,"nx":28,"ny":28,"refTime":"2025-06-18T21:00:00:Z","depth":0,"parameterNumber":2,"parameterNumberName":"U-component_of_WINDS"},"data":[0,0,0,0,0,0,0,0,0,0,0,0,0,0,0,0,0,0,0,0,0,0,0,0,0,0,0,0,0,0,0,0,0,0,0,0,0,0,0,0,0,0,0,0,0,0,0,0,0,0,0,0,0,0,0,0,0,0,2.9673,2.9674,0,2.969,2.969,2.969,2.969,2.969,2.9689,2.9689,2.9707,2.9708,2.9709,0,0,0,0,0,0,0,0,0,0,0,0,0,2.9643,2.9643,2.9673,2.9674,2.9674,2.969,2.969,2.969,2.969,2.969,2.9689,2.9689,2.9707,2.9708,2.9709,0,0,0,0,0,0,0,0,0,0,0,0,0,2.9657,2.9643,2.9673,2.9675,2.9676,2.969,2.969,2.969,2.969,2.969,2.9689,2.9689,2.9707,2.9708,2.9709,2.9722,0,0,2.9712,2.9713,0,0,0,0,0,0,0,0,2.9656,2.9658,2.9675,2.9675,2.9676,2.9687,2.9686,2.9701,2.969,2.9685,2.9689,2.9689,2.9701,2.9703,2.9706,2.9723,2.9724,2.9712,2.9713,2.9713,2.9714,0,0,0,0,0,0,0,2.9655,2.9658,2.968,2.9675,2.9676,2.9676,2.9678,2.9689,2.9695,2.9685,2.9685,2.9687,2.9701,2.9705,2.9707,2.9724,2.9712,2.9713,2.9714,2.9714,2.9752,2.9752,0,0,0,0,0,0,2.9654,2.9657,2.9679,2.968,2.9665,2.9677,2.9679,2.9684,2.9694,2.9696,2.9687,2.9687,2.9704,2.9706,2.9708,2.9723,2.9713,2.9714,2.9715,2.9752,2.9752,2.9753,0,0,0,0,0,0,2.9653,2.9656,2.9679,2.9669,2.9672,2.9678,2.9684,2.9685,2.9689,2.9696,2.9697,2.969,2.9704,2.9706,2.9718,2.9724,2.9715,2.9716,2.9751,2.9752,2.9752,2.9756,0,0,0,0,0,0,2.9652,2.9656,2.966,2.9669,2.9672,2.9689,2.9684,2.9685,2.969,2.969,2.9699,2.9701,2.9704,2.9717,2.9719,2.9725,2.9717,2.9751,2.9752,2.9752,2.9755,2.9756,2.9757,0,0,0,0,0,2.9651,2.9661,2.9661,2.9663,2.9678,2.9689,2.9691,2.9694,2.9691,2.9696,2.9701,2.97,2.9723,2.9718,2.9721,2.9727,2.975,2.9751,2.9752,2.9754,2.9756,2.9757,0,0,0,0,0,0,2.9654,2.9662,2.9662,2.9675,2.9681,2.9689,2.9696,2.9696,2.9704,2.9703,2.9707,2.9709,2.9721,2.9725,2.972,2.9741,2.9736,2.9738,2.9737,2.9739,2.974,2.9738,2.9717,0,0,0,0,0,2.9656,2.9664,2.9671,2.9682,2.9685,2.969,2.9695,2.9696,2.9703,2.9706,2.9712,2.9719,2.9728,2.9733,2.9742,2.9756,2.9758,2.9761,2.9763,2.9763,2.9765,2.9772,2.9774,2.9755,2.9755,2.9755,0,0,2.966,2.9666,2.9671,2.9682,2.9687,2.9696,2.9692,2.9701,2.9707,2.9708,2.9719,2.9724,2.9732,2.9745,2.9751,2.9749,2.977,2.9764,2.9765,2.9766,2.9773,2.9775,2.9776,2.9756,2.9756,2.9756,0,0,2.9673,2.9678,2.9687,2.9692,2.97,2.9703,2.9705,2.9713,2.9716,2.9727,2.9728,2.9735,2.975,2.9756,2.9761,2.9775,2.9775,2.9778,2.9784,2.9791,2.9792,2.9793,2.9798,2.98,2.9779,2.9779,2.9779,0,2.9677,2.969,2.9692,2.9701,2.9706,2.9706,2.9715,2.972,2.973,2.9734,2.9732,2.975,2.9756,2.977,2.9773,2.9777,2.978,2.9777,2.9792,2.9793,2.9794,2.9799,2.98,2.9779,2.9779,2.9779,2.9779,0,2.9695,2.9703,2.971,2.9719,2.9725,2.9734,2.9738,2.9743,2.9744,2.9748,2.976,2.9766,2.9776,2.9779,2.9781,2.9794,2.9792,2.9791,2.9786,2.9796,2.98,2.9802,2.978,2.9779,2.9779,2.9779,0,0,2.9709,2.9719,2.9722,2.9726,2.9734,2.9741,2.975,2.9759,2.9763,2.9771,2.9778,2.9791,2.9789,2.9795,2.9797,2.9803,2.9813,2.9801,2.9801,2.9803,2.9828,2.9828,2.983,2.9813,2.9814,2.9814,2.9827,0,2.9722,2.9738,2.974,2.9754,2.9762,2.9762,2.977,2.9776,2.9779,2.9787,2.9791,2.9799,2.9797,2.98,2.9806,2.9811,2.9818,2.981,2.9821,2.9821,2.9818,2.9833,2.9834,2.9846,2.9828,2.9829,2.9829,0,2.974,2.9746,2.9761,2.9768,2.9771,2.9778,2.9786,2.9793,2.98,2.9802,2.9808,2.9809,2.9819,2.9814,2.9828,2.9822,2.9826,2.9829,2.983,2.9831,2.9825,2.9834,2.985,2.9851,2.9832,2.9831,2.9831,0,2.9749,2.9761,2.9772,2.9775,2.9783,2.9788,2.9792,2.9799,2.9804,2.9811,2.9814,2.9823,2.9827,2.9834,2.9837,2.9834,2.985,2.9846,2.9852,2.9852,2.9856,2.9856,2.9872,2.9859,2.9859,2.9859,2.9859,0,2.9763,2.9772,2.9776,2.9782,2.9792,2.9794,2.9804,2.9808,2.9814,2.9821,2.9822,2.9828,2.9833,2.984,2.9843,2.9853,2.9856,2.9858,2.9858,2.9857,2.9857,2.986,2.986,2.986,2.986,2.9859,2.9859,0,2.9774,2.9777,2.9789,2.9795,2.9797,2.9804,2.981,2.9816,2.9819,2.9828,2.9831,2.9836,2.9845,2.9849,2.986,2.9862,2.9873,2.9874,2.9871,2.9871,2.9877,2.9876,2.9896,2.9899,2.9884,2.9884,2.9884,0,2.9783,2.979,2.9797,2.9801,2.9805,2.9813,2.9818,2.982,2.9825,2.9834,2.9839,2.9847,2.9854,2.9869,2.9873,2.9882,2.9882,2.9889,2.9883,2.9882,2.9882,2.9881,2.9882,2.9889,2.989,2.989,2.989,0,2.9798,2.9799,2.9806,2.9813,2.9819,2.9825,2.9831,2.9835,2.9838,2.9844,2.9853,2.9858,2.9869,2.9878,2.9886,2.989,2.9891,2.9891,2.9893,2.9892,2.989,2.9891,2.9873,2.9891,2.9891,2.9891,2.9891,2.9891,2.9808,2.9814,2.982,2.9828,2.9832,2.9837,2.9843,2.9847,2.9854,2.9863,2.9864,2.9873,2.988,2.9891,2.9896,2.9903,2.9902,2.9904,2.9905,2.9906,2.9906,2.9889,2.9905,2.9905,2.9905,2.9905,2.9905,0,2.9823,2.9827,2.9834,2.9842,2.9847,2.9847,2.9853,2.9858,2.9866,2.9872,2.9878,2.9888,2.9896,2.9902,2.991,2.9915,2.9915,2.9917,2.9917,2.9917,2.9907,2.9904,2.9917,2.9917,2.9917,2.9917,2.9917,2.9917,2.9832,2.9841,2.9843,2.9855,2.9858,2.9867,2.9871,2.9876,2.988,2.9891,2.9897,2.9901,2.9906,2.9915,2.9922,2.9924,2.9927,2.9928,2.993,2.992,2.9918,2.9917,2.9915,2.9929,2.9929,2.994,2.994,2.994]},{"header":{"parameterUnit":"m.s-1","parameterCategory":1,"la1":30.2991,"la2":30.254,"lo1":-89.0895,"lo2":-89.0444,"dy":0.0017,"dx":0.0017,"nx":28,"ny":28,"refTime":"2025-06-18T21:00:00:Z","depth":0,"parameterNumber":3,"parameterNumberName":"V-component_of_WINDS"},"data":[0,0,0,0,0,0,0,0,0,0,0,0,0,0,0,0,0,0,0,0,0,0,0,0,0,0,0,0,0,0,0,0,0,0,0,0,0,0,0,0,0,0,0,0,0,0,0,0,0,0,0,0,0,0,0,0,0,0,1.7003,1.7003,0,1.6952,1.6951,1.6951,1.6935,1.6936,1.6936,1.6936,1.6882,1.688,1.6878,0,0,0,0,0,0,0,0,0,0,0,0,0,1.7086,1.7085,1.7003,1.7003,1.7002,1.6952,1.6951,1.695,1.6935,1.6936,1.6936,1.6936,1.6882,1.688,1.6878,0,0,0,0,0,0,0,0,0,0,0,0,0,1.7044,1.7084,1.7003,1.6988,1.6986,1.6952,1.6951,1.695,1.6935,1.6936,1.6936,1.6936,1.6883,1.6881,1.6878,1.6854,0,0,1.687,1.6869,0,0,0,0,0,0,0,0,1.7046,1.7041,1.6991,1.6989,1.6987,1.695,1.696,1.6918,1.6935,1.6955,1.6936,1.6937,1.6904,1.69,1.6889,1.6852,1.6849,1.687,1.6868,1.6867,1.6867,0,0,0,0,0,0,0,1.7049,1.7043,1.6983,1.699,1.6988,1.6984,1.6978,1.6952,1.6928,1.6953,1.6952,1.6946,1.6903,1.6892,1.6888,1.6849,1.687,1.6868,1.6866,1.6865,1.6788,1.6787,0,0,0,0,0,0,1.7055,1.7046,1.6984,1.6981,1.7018,1.6982,1.6975,1.6962,1.6928,1.6923,1.6946,1.6945,1.6896,1.6891,1.6886,1.6855,1.6867,1.6865,1.6864,1.6788,1.6788,1.6787,0,0,0,0,0,0,1.7057,1.705,1.6986,1.7013,1.7005,1.698,1.6965,1.6961,1.6949,1.6922,1.6918,1.6939,1.6896,1.689,1.6862,1.6853,1.6864,1.6862,1.6789,1.6788,1.6787,1.6793,0,0,0,0,0,0,1.7059,1.7051,1.7042,1.7013,1.7003,1.6964,1.6964,1.6959,1.6945,1.6944,1.6915,1.691,1.6896,1.6866,1.686,1.685,1.686,1.6789,1.6788,1.6787,1.6794,1.6793,1.6792,0,0,0,0,0,1.7062,1.7045,1.7041,1.7034,1.6992,1.6964,1.6958,1.6942,1.6944,1.6935,1.6918,1.6911,1.6855,1.6863,1.6856,1.6845,1.679,1.6789,1.6788,1.6794,1.6793,1.6792,0,0,0,0,0,0,1.7073,1.7041,1.7037,1.701,1.699,1.6961,1.6949,1.6942,1.692,1.692,1.6901,1.6895,1.6868,1.6854,1.6864,1.682,1.6822,1.682,1.683,1.6828,1.6828,1.6831,1.6857,0,0,0,0,0,1.7072,1.7053,1.7026,1.7005,1.6995,1.6974,1.6961,1.695,1.6928,1.692,1.69,1.6879,1.6856,1.6842,1.682,1.6792,1.6785,1.6781,1.678,1.6779,1.6777,1.676,1.6758,1.6783,1.6783,1.6783,0,0,1.7071,1.7051,1.7039,1.7006,1.699,1.6969,1.6966,1.6945,1.6929,1.6916,1.6889,1.6874,1.6849,1.6821,1.6808,1.6808,1.6768,1.6778,1.6777,1.6775,1.6759,1.6756,1.6754,1.6782,1.6782,1.6782,0,0,1.7056,1.704,1.702,1.7003,1.6978,1.6964,1.6959,1.6932,1.6921,1.6894,1.6884,1.6864,1.6826,1.6808,1.6794,1.6773,1.6766,1.6766,1.6761,1.6745,1.6743,1.6741,1.6733,1.673,1.6764,1.6764,1.6764,0,1.7057,1.7026,1.7011,1.6989,1.6975,1.6963,1.6942,1.6926,1.6895,1.6885,1.6886,1.6837,1.682,1.6787,1.6782,1.6771,1.6764,1.6769,1.6745,1.6743,1.6741,1.6732,1.6729,1.6764,1.6764,1.6764,1.6764,0,1.7028,1.7006,1.6993,1.6963,1.6947,1.6926,1.6907,1.6893,1.6884,1.6869,1.6841,1.6819,1.6792,1.6784,1.6775,1.6749,1.675,1.6749,1.6751,1.6739,1.673,1.6727,1.6765,1.6765,1.6765,1.6764,0,0,1.7018,1.698,1.6976,1.6962,1.6933,1.6915,1.6894,1.6868,1.6855,1.6834,1.6814,1.6782,1.678,1.6764,1.6753,1.6739,1.6722,1.6739,1.6738,1.6735,1.6692,1.6692,1.6689,1.6718,1.6717,1.6717,1.6693,0,1.7,1.6961,1.6946,1.6914,1.6893,1.6882,1.6863,1.6842,1.6828,1.6808,1.6792,1.677,1.6769,1.6759,1.6745,1.6727,1.6713,1.6729,1.6698,1.6698,1.6704,1.6685,1.6686,1.6665,1.669,1.669,1.6689,0,1.6972,1.6951,1.6917,1.689,1.6881,1.6864,1.6838,1.682,1.6796,1.6787,1.6769,1.6759,1.6735,1.6739,1.6705,1.6716,1.6703,1.6692,1.6691,1.6687,1.6692,1.6679,1.6658,1.6654,1.6684,1.6685,1.6685,0,1.6968,1.693,1.6905,1.6893,1.6862,1.685,1.6836,1.6813,1.6798,1.6775,1.6765,1.674,1.6726,1.6707,1.669,1.6695,1.6657,1.666,1.6648,1.6648,1.6639,1.664,1.6615,1.6633,1.6633,1.6633,1.6633,0,1.6948,1.6927,1.6902,1.6886,1.6862,1.6846,1.6822,1.6808,1.6787,1.6768,1.6756,1.6738,1.6718,1.6697,1.6683,1.6656,1.665,1.6642,1.6638,1.6642,1.6643,1.6632,1.6632,1.6632,1.6632,1.6633,1.6633,0,1.6938,1.692,1.6892,1.6864,1.6857,1.684,1.6816,1.68,1.6785,1.6761,1.6754,1.6731,1.6705,1.6687,1.6654,1.6645,1.6616,1.6613,1.6624,1.6622,1.661,1.6611,1.6576,1.657,1.6593,1.6593,1.6593,0,1.6925,1.6909,1.688,1.6866,1.6852,1.6831,1.6815,1.6798,1.6783,1.6754,1.6741,1.6715,1.6693,1.6653,1.6633,1.6608,1.6603,1.6593,1.6599,1.6603,1.6601,1.6602,1.66,1.6591,1.6591,1.6591,1.6591,0,1.6905,1.6897,1.6876,1.6851,1.6834,1.6813,1.6793,1.6782,1.6761,1.6744,1.6718,1.6701,1.6668,1.6641,1.6614,1.6599,1.6591,1.6589,1.6585,1.6588,1.6594,1.6589,1.662,1.659,1.659,1.659,1.659,1.659,1.6893,1.6877,1.6854,1.6831,1.6813,1.6794,1.6778,1.6761,1.6739,1.6711,1.6702,1.6675,1.6651,1.6614,1.6598,1.6576,1.6577,1.657,1.6568,1.6567,1.6566,1.6599,1.6571,1.6571,1.6571,1.6571,1.6571,0,1.6871,1.6855,1.6834,1.6806,1.6787,1.6782,1.6759,1.6743,1.6719,1.6698,1.6677,1.6647,1.6621,1.6599,1.6573,1.6559,1.6555,1.6553,1.6553,1.6549,1.6568,1.6574,1.6557,1.6557,1.6557,1.6557,1.6557,1.6557,1.6857,1.6831,1.682,1.6785,1.6769,1.6743,1.673,1.6712,1.6695,1.6662,1.664,1.6627,1.6605,1.6576,1.6552,1.6547,1.6537,1.6535,1.6528,1.6546,1.6548,1.655,1.6555,1.6534,1.6533,1.6511,1.6511,1.651]}]]